Retour au catalogue

DELTA 1 DEB

ActifSSO
NORAD 12174·DEBRIS·🇺🇸 United States

Lancé Mar 5, 1978 depuis Vandenberg Space Force Base

Loading…

Prochains Passages (prochaines 24 heures)

TLE

FraisSource: Space-Track

Époque: Sep 14, 2026, 13:12 UTC

1 12174U 78026P   26257.55028281  .00000102  00000-0  81714-4 0  9999
2 12174  99.0192 292.5958 0042918  85.7937  78.0883 14.10411632344334

Suivez DELTA 1 DEB en temps réel avec AllMySat

Download on the App Store